This is the latest recevied weather packets stored in our database for station/object KN6KS. If no packets are shown the sender has not sent any weather packets the latest 10 day(s).
| Time | Temp. | Humidity | Pressure | Rain* | Wind** | Luminosity | Snow |
|---|---|---|---|---|---|---|---|
| 1777730438 | 12.22° C | 49% | 1014.1 hPa | 0 mm | - | 47 W/m² | - |
| 1777730134 | 12.22° C | 50% | 1014.1 hPa | 0 mm | - | 43 W/m² | - |
| 1777729832 | 12.22° C | 48% | 1014.1 hPa | 0 mm | - | 39 W/m² | - |
| 1777729528 | 11.67° C | 49% | 1013.9 hPa | 0 mm | - | 35 W/m² | - |
| 1777729225 | 11.67° C | 51% | 1014.1 hPa | 0 mm | - | 30 W/m² | - |
| 1777728921 | 12.78° C | 50% | 1013.5 hPa | 0 mm | - | 26 W/m² | - |
| 1777728618 | 13.33° C | 48% | 1013.4 hPa | 0 mm | - | 21 W/m² | - |
| 1777728316 | 13.33° C | 47% | 1013.3 hPa | 0 mm | - | 18 W/m² | - |
| 1777728012 | 12.78° C | 50% | 1013.1 hPa | 0 mm | - | 13 W/m² | - |
| 1777727709 | 13.33° C | 50% | 1013.1 hPa | 0 mm | - | 10 W/m² | - |
| 1777727406 | 12.78° C | 48% | 1013.3 hPa | 0 mm | - | 6 W/m² | - |
| 1777727103 | 12.78° C | 49% | 1013.1 hPa | 0 mm | - | 3 W/m² | - |
| 1777726801 | 13.33° C | 48% | 1013.1 hPa | 0 mm | - | 1 W/m² | - |
| 1777726498 | 13.33° C | 47% | 1013.2 hPa | 0 mm | - | 0 W/m² | - |
| 1777726195 | 13.33° C | 47% | 1013.1 hPa | 0 mm | - | 0 W/m² | - |
| 1777725891 | 13.33° C | 46% | 1013.1 hPa | 0 mm | - | 0 W/m² | - |
| 1777725589 | 13.89° C | 46% | 1013 hPa | 0 mm | - | 0 W/m² | - |
| 1777725286 | 13.89° C | 45% | 1012.9 hPa | 0 mm | - | 0 W/m² | - |
| 1777724983 | 13.89° C | 44% | 1013.1 hPa | 0 mm | - | 0 W/m² | - |
| 1777724679 | 13.33° C | 45% | 1012.9 hPa | 0 mm | - | 0 W/m² | - |
| 1777724378 | 12.78° C | 46% | 1012.8 hPa | 0 mm | - | 0 W/m² | - |
| 1777724074 | 13.89° C | 46% | 1012.8 hPa | 0 mm | - | 0 W/m² | - |
| 1777723772 | 13.89° C | 44% | 1012.7 hPa | 0 mm | - | 0 W/m² | - |
| 1777723468 | 13.89° C | 44% | 1012.8 hPa | 0 mm | - | 0 W/m² | - |
| 1777723165 | 13.89° C | 43% | 1012.7 hPa | 0 mm | - | 0 W/m² | - |
* Rain latest hour (hover to see other rain measurements)
** Current wind speed in m/s (hover to see current wind gust speed)